Weather History for KOKM - August, 2013

Change the Weather History Date:

Friday, August 23, 2013

  Actual Average (KMKO) Record (KMKO)
Temperature  
Mean Temperature 79 °F -  
Max Temperature 90 °F 90 °F 102 °F (1999)
Min Temperature 69 °F 67 °F 62 °F (2012)
Cooling Degree Days 14    
Growing Degree Days 29 (Base 50)    
Moisture  
Dew Point 71 °F    
Average Humidity 81    
Maximum Humidity 96    
Minimum Humidity 58    
Precipitation  
Precipitation 0.00 in - - ()
Sea Level Pressure  
Sea Level Pressure 30.02 in    
Wind  
Wind Speed 2 mph (ESE)    
Max Wind Speed 12 mph    
Max Gust Speed 18 mph    
Visibility 10 miles    
Events Rain , Thunderstorm    
Averages and records for this station are not official NWS values.
T = Trace of Precipitation, MM = Missing Value Source: NWS Daily Summary

Daily Weather History Graph

Daily Weather History Graph

Search for Another Location

Airport or City:

Trip Planner

Search our weather history database for the weather conditions in past years. The results will help you decide how hot, cold, wet, or windy it might be!

Date:

Astronomy

Aug. 23, 2013 Rise Set
Actual Time 6:49 AM CDT 8:02 PM CDT
Civil Twilight 6:22 AM CDT 8:29 PM CDT
Nautical Twilight 5:50 AM CDT 9:00 PM CDT
Astronomical Twilight 5:17 AM CDT 9:33 PM CDT
Moon 9:31 PM CDT (8/23) 9:37 AM CDT (8/23)
Length of Visible Light 14h 06m
Length of Day
13h 13m
Waning Gibbous, 91% of the Moon is Illuminated
Aug 23
Waning Gibbous
Aug 28
Last Quarter
Sep 5
New
Sep 12
First Quarter
Sep 19
Full

Hourly Weather History & Observations

Time (CDT) Temp. Heat Index Dew Point Humidity Pressure Visibility Wind Dir Wind Speed Gust Speed Precip Events Conditions
12:15 AM 75.2 °F - 71.1 °F 87% 30.03 in 10.0 mi Calm Calm - N/A   Clear
12:35 AM 73.6 °F - 70.7 °F 91% 30.04 in 10.0 mi NE 3.5 mph - N/A   Clear
12:55 AM 74.3 °F - 70.7 °F 88% 30.03 in 10.0 mi ENE 4.6 mph - N/A   Clear
1:15 AM 73.0 °F - 70.7 °F 92% 30.03 in 10.0 mi Calm Calm - N/A   Scattered Clouds
1:35 AM 75.7 °F - 69.8 °F 82% 30.03 in 10.0 mi Calm Calm - N/A   Mostly Cloudy
1:55 AM 74.3 °F - 70.3 °F 87% 30.02 in 10.0 mi ENE 3.5 mph - N/A   Mostly Cloudy
2:15 AM 72.9 °F - 69.8 °F 90% 30.02 in 10.0 mi NE 3.5 mph - N/A   Scattered Clouds
2:35 AM 72.9 °F - 69.8 °F 90% 30.02 in 10.0 mi NE 4.6 mph - N/A   Scattered Clouds
2:55 AM 72.0 °F - 69.8 °F 93% 30.02 in 10.0 mi NNE 3.5 mph - N/A   Mostly Cloudy
3:15 AM 72.5 °F - 70.0 °F 92% 30.02 in 10.0 mi NE 3.5 mph - N/A   Scattered Clouds
3:35 AM 73.0 °F - 69.8 °F 90% 30.02 in 10.0 mi North - - N/A   Scattered Clouds
3:55 AM 72.0 °F - 69.1 °F 91% 30.02 in 10.0 mi North - - N/A   Scattered Clouds
4:15 AM 71.6 °F - 68.9 °F 91% 30.02 in 10.0 mi North - - N/A   Clear
4:35 AM 70.9 °F - 68.9 °F 93% 30.02 in 10.0 mi North - - N/A   Clear
4:55 AM 71.4 °F - 69.1 °F 92% 30.02 in 10.0 mi Calm Calm - N/A   Clear
5:15 AM 71.2 °F - 69.1 °F 93% 30.02 in 10.0 mi Calm Calm - N/A   Clear
5:35 AM 69.8 °F - 68.4 °F 95% 30.02 in 10.0 mi Calm Calm - N/A   Clear
5:55 AM 71.1 °F - 68.5 °F 92% 30.02 in 10.0 mi Calm Calm - N/A   Clear
6:15 AM 70.3 °F - 68.2 °F 93% 30.02 in 10.0 mi Calm Calm - N/A   Scattered Clouds
6:35 AM 70.2 °F - 68.2 °F 93% 30.02 in 10.0 mi Calm Calm - N/A   Clear
6:55 AM 70.2 °F - 68.9 °F 96% 30.03 in 7.0 mi Calm Calm - N/A   Scattered Clouds
7:15 AM 70.9 °F - 69.3 °F 95% 30.04 in 7.0 mi Calm Calm - N/A   Mostly Cloudy
7:35 AM 72.3 °F - 69.8 °F 92% 30.04 in 10.0 mi NE 4.6 mph - N/A   Mostly Cloudy
7:55 AM 73.8 °F - 70.0 °F 88% 30.04 in 10.0 mi Calm Calm - N/A   Mostly Cloudy
8:15 AM 75.4 °F - 70.7 °F 85% 30.05 in 10.0 mi Calm Calm - N/A   Scattered Clouds
8:35 AM 76.3 °F - 71.4 °F 85% 30.06 in 10.0 mi ESE 3.5 mph - N/A   Mostly Cloudy
8:55 AM 77.4 °F - 71.8 °F 83% 30.05 in 10.0 mi SE 3.5 mph - N/A   Mostly Cloudy
9:15 AM 80.6 °F 84.7 °F 72.0 °F 75% 30.06 in 10.0 mi Calm Calm - N/A   Mostly Cloudy
9:35 AM 82.4 °F 87.0 °F 71.4 °F 69% 30.06 in 10.0 mi South 5.8 mph - N/A   Overcast
9:55 AM 81.5 °F 85.5 °F 70.9 °F 70% 30.05 in 10.0 mi South 3.5 mph - N/A   Overcast
10:15 AM 81.5 °F 85.9 °F 71.6 °F 72% 30.06 in 10.0 mi SSE 4.6 mph - N/A   Overcast
10:35 AM 81.5 °F 85.5 °F 70.9 °F 70% 30.06 in 10.0 mi South 9.2 mph - N/A   Overcast
10:55 AM 81.5 °F 85.3 °F 70.5 °F 69% 30.07 in 10.0 mi South 3.5 mph - N/A   Overcast
11:15 AM 81.5 °F 85.7 °F 71.2 °F 71% 30.07 in 10.0 mi SSW 3.5 mph - N/A Rain Light Rain
11:35 AM 80.2 °F 84.3 °F 72.3 °F 77% 30.07 in 10.0 mi Calm Calm - N/A Rain Rain
11:55 AM 78.6 °F - 73.0 °F 83% 30.07 in 10.0 mi Calm Calm - N/A   Light Drizzle
12:15 PM 78.8 °F - 73.9 °F 85% 30.08 in 10.0 mi Calm Calm - N/A   Overcast
12:35 PM 79.0 °F - 71.1 °F 77% 30.07 in 10.0 mi SSW 4.6 mph - N/A Rain Light Rain
12:55 PM 78.3 °F - 72.0 °F 81% 30.07 in 10.0 mi West 3.5 mph - N/A   Overcast
1:15 PM 77.4 °F - 71.2 °F 81% 30.06 in 10.0 mi West 9.2 mph - N/A   Overcast
1:35 PM 77.7 °F - 71.6 °F 81% 30.05 in 10.0 mi Calm Calm - N/A   Overcast
1:55 PM 79.3 °F - 72.3 °F 79% 30.04 in 10.0 mi Calm Calm - N/A   Overcast
2:15 PM 80.1 °F 83.4 °F 70.9 °F 73% 30.03 in 10.0 mi Calm Calm - N/A   Overcast
2:35 PM 81.5 °F 85.5 °F 71.1 °F 70% 30.02 in 10.0 mi Calm Calm - N/A   Overcast
2:55 PM 83.3 °F 89.3 °F 72.9 °F 71% 30.02 in 10.0 mi Calm Calm - N/A Thunderstorm Overcast
3:15 PM 83.7 °F 89.4 °F 72.7 °F 69% 30.01 in 10.0 mi SE 3.5 mph - N/A   Overcast
3:35 PM 84.7 °F 90.4 °F 72.0 °F 65% 30.01 in 10.0 mi SE 3.5 mph - N/A   Overcast
3:55 PM 84.9 °F 91.8 °F 73.2 °F 68% 30.00 in 10.0 mi Calm Calm - N/A Thunderstorm Overcast
4:15 PM 85.3 °F 91.8 °F 72.7 °F 66% 30.00 in 10.0 mi Calm Calm - N/A   Overcast
4:35 PM 89.2 °F 96.9 °F 72.7 °F 58% 30.01 in 10.0 mi East 6.9 mph - N/A   Overcast
4:55 PM 88.9 °F 96.6 °F 73.0 °F 59% 30.00 in 10.0 mi East 6.9 mph - N/A   Mostly Cloudy
5:15 PM 89.2 °F 97.4 °F 73.4 °F 59% 29.99 in 10.0 mi ESE 8.1 mph - N/A   Scattered Clouds
5:35 PM 88.0 °F 95.6 °F 72.9 °F 61% 29.99 in 10.0 mi ESE 8.1 mph 18.4 mph N/A   Clear
5:55 PM 86.4 °F 93.4 °F 73.0 °F 64% 29.98 in 10.0 mi East 11.5 mph 17.3 mph N/A   Clear
6:15 PM 86.2 °F 93.8 °F 73.4 °F 66% 29.98 in 10.0 mi North - - N/A   Clear
6:35 PM 86.0 °F 93.0 °F 73.0 °F 65% 29.98 in 10.0 mi ESE 6.9 mph - N/A   Clear
6:55 PM 84.9 °F 91.4 °F 72.7 °F 67% 29.98 in 10.0 mi SE 9.2 mph - N/A   Clear
7:15 PM 83.5 °F 89.1 °F 72.3 °F 69% 29.98 in 10.0 mi East 6.9 mph - N/A   Clear
7:35 PM 81.9 °F 87.0 °F 72.7 °F 74% 29.98 in 10.0 mi SSE 8.1 mph - N/A   Clear
7:55 PM 80.2 °F 84.3 °F 72.5 °F 77% 29.98 in 7.0 mi Calm Calm - N/A   Clear
8:15 PM 79.0 °F - 71.8 °F 78% 29.98 in 10.0 mi SE 3.5 mph - N/A   Clear
8:35 PM 78.1 °F - 71.8 °F 81% 29.99 in 10.0 mi Calm Calm - N/A   Clear
8:55 PM 76.6 °F - 71.8 °F 85% 29.99 in 10.0 mi ENE 3.5 mph - N/A   Clear
9:15 PM 75.6 °F - 71.6 °F 87% 30.01 in 10.0 mi Calm Calm - N/A   Clear
9:35 PM 76.1 °F - 70.9 °F 84% 30.01 in 10.0 mi Calm Calm - N/A   Clear
9:55 PM 75.6 °F - 70.7 °F 85% 30.01 in 10.0 mi ENE 4.6 mph - N/A   Clear
10:15 PM 73.9 °F - 70.2 °F 88% 30.02 in 10.0 mi Calm Calm - N/A   Clear
10:35 PM 71.6 °F - 70.0 °F 95% 30.02 in 10.0 mi Calm Calm - N/A   Clear
10:55 PM 71.1 °F - 70.0 °F 96% 30.02 in 7.0 mi NE 3.5 mph - N/A   Clear
11:15 PM 71.6 °F - 69.6 °F 93% 30.02 in 10.0 mi Calm Calm - N/A   Clear
11:35 PM 71.1 °F - 69.1 °F 93% 30.03 in 10.0 mi NE 3.5 mph - N/A   Clear
11:55 PM 71.2 °F - 69.4 °F 94% 30.03 in 10.0 mi ENE 4.6 mph - N/A   Clear